Opa Locka, FL

11:32 AM EDT on March 23, 2017 (GMT -0400)
Opa Locka

Weather History for KOPF - September, 2013

Change the Weather History Date:

Saturday, September 21, 2013

  Actual Average Record
Temperature  
Mean Temperature 81 °F -  
Max Temperature 88 °F 89 °F 95 °F (1961)
Min Temperature 75 °F 75 °F 69 °F (1980)
Cooling Degree Days 16    
Growing Degree Days 31 (Base 50)    
Moisture  
Dew Point 73 °F    
Average Humidity 78    
Maximum Humidity 94    
Minimum Humidity 61    
Precipitation  
Precipitation 0.00 in - - ()
Sea Level Pressure  
Sea Level Pressure 29.86 in    
Wind  
Wind Speed 5 mph (East)    
Max Wind Speed 12 mph    
Max Gust Speed 16 mph    
Visibility 10 miles    
Events Rain    
Averages and records for this station are not official NWS values.
T = Trace of Precipitation, MM = Missing Value Source: NWS Daily Summary

Daily Weather History Graph

Daily Weather History Graph

Search for Another Location

Airport or City:

Trip Planner

Search our weather history database for the weather conditions in past years. The results will help you decide how hot, cold, wet, or windy it might be!

Date:

Astronomy

Sep. 21, 2013 Rise Set
Actual Time 7:09 AM EDT 7:18 PM EDT
Civil Twilight 6:46 AM EDT 7:41 PM EDT
Nautical Twilight 6:19 AM EDT 8:08 PM EDT
Astronomical Twilight 5:52 AM EDT 8:35 PM EDT
Moon 8:47 PM EDT (9/21) 9:08 AM EDT (9/21)
Length of Visible Light 12h 54m
Length of Day
12h 08m
Waning Gibbous, 94% of the Moon is Illuminated
Sep 21
Waning Gibbous
Sep 26
Last Quarter
Oct 4
New
Oct 11
First Quarter
Oct 18
Full

Hourly Weather History & Observations

Time (EDT) Temp. Heat Index Dew Point Humidity Pressure Visibility Wind Dir Wind Speed Gust Speed Precip Events Conditions
12:53 AM 77.0 °F - 73.0 °F 88% 29.92 in 10.0 mi North 4.6 mph - N/A   Scattered Clouds
1:53 AM 77.0 °F - 73.0 °F 88% 29.91 in 10.0 mi North 5.8 mph - N/A   Clear
2:53 AM 75.9 °F - 73.0 °F 91% 29.90 in 10.0 mi North 3.5 mph - N/A   Partly Cloudy
3:53 AM 75.9 °F - 73.0 °F 91% 29.88 in 10.0 mi North 4.6 mph - N/A   Partly Cloudy
4:53 AM 75.0 °F - 73.0 °F 94% 29.87 in 10.0 mi North 4.6 mph - N/A   Clear
5:53 AM 75.0 °F - 73.0 °F 94% 29.87 in 10.0 mi North 3.5 mph - N/A   Clear
6:53 AM 75.0 °F - 72.0 °F 90% 29.86 in 10.0 mi Calm Calm - N/A   Partly Cloudy
7:53 AM 75.9 °F - 73.0 °F 91% 29.87 in 10.0 mi North 3.5 mph - N/A   Partly Cloudy
8:53 AM 81.0 °F 86.2 °F 73.9 °F 79% 29.88 in 10.0 mi Calm Calm - N/A   Clear
9:53 AM 84.0 °F 89.6 °F 72.0 °F 67% 29.90 in 10.0 mi ESE 6.9 mph - N/A   Mostly Cloudy
10:53 AM 86.0 °F 92.2 °F 72.0 °F 63% 29.90 in 10.0 mi East 4.6 mph - N/A   Partly Cloudy
11:53 AM 86.0 °F 92.2 °F 72.0 °F 63% 29.90 in 10.0 mi ESE 8.1 mph - N/A   Mostly Cloudy
12:53 PM 87.1 °F 94.5 °F 73.0 °F 63% 29.88 in 10.0 mi ENE 6.9 mph - N/A   Scattered Clouds
1:53 PM 84.0 °F 90.2 °F 73.0 °F 69% 29.85 in 10.0 mi East 9.2 mph - 0.00 in Rain Light Rain
2:53 PM 84.9 °F 90.7 °F 72.0 °F 65% 29.83 in 10.0 mi SE 11.5 mph 16.1 mph 0.00 in   Mostly Cloudy
3:53 PM 87.1 °F 93.6 °F 72.0 °F 61% 29.81 in 10.0 mi SE 10.4 mph - N/A   Scattered Clouds
4:53 PM 84.9 °F 91.4 °F 73.0 °F 67% 29.80 in 10.0 mi ESE 9.2 mph - N/A   Scattered Clouds
5:53 PM 82.9 °F 88.0 °F 72.0 °F 69% 29.79 in 10.0 mi ESE 9.2 mph - N/A   Overcast
6:53 PM 82.0 °F 87.9 °F 73.9 °F 76% 29.80 in 10.0 mi SE 8.1 mph - 0.00 in   Clear
7:53 PM 80.1 °F 84.5 °F 73.9 °F 81% 29.81 in 10.0 mi ESE 6.9 mph - N/A   Clear
8:53 PM 81.0 °F 86.2 °F 73.9 °F 79% 29.83 in 10.0 mi ESE 8.1 mph - N/A   Overcast
9:53 PM 82.0 °F 87.9 °F 73.9 °F 76% 29.85 in 10.0 mi SE 9.2 mph - 0.00 in   Overcast
10:53 PM 80.1 °F 85.4 °F 75.9 °F 87% 29.86 in 10.0 mi SSE 5.8 mph - 0.00 in   Overcast
11:53 PM 80.1 °F 85.1 °F 75.0 °F 85% 29.84 in 10.0 mi SE 3.5 mph - N/A   Scattered Clouds